Temperature
18 18 18 18 18 18 18 18 18 18 18 18 18 17 17 17 17 18 18 17 17 18 18 17 17 17 17 17 17 17 17 17 17 16 16 16 16 16 16 16 16 16 16
18 18 18 18 18 18 18 18 18 18 18 18 18 17 17 17 17 18 18 18 17 18 18 18 18 18 17 17 17 17 17 17 17 16 16 16 16 16 16 16 16 16 16
18 18 18 18 18 18 18 18 18 18 18 17 18 17 17 17 17 18 18 17 18 18 18 18 18 18 17 17 17 17 17 17 17 17 16 16 16 16 16 16 16 16 16
18 18 18 18 18 18 18 18 18 18 18 18 18 18 18 17 17 18 18 18 18 18 17 18 17 17 17 17 17 17 17 17 17 17 16 16 16 16 16 16 16 16 16
18 18 18 18 18 18 18 18 18 18 18 18 18 18 18 18 18 18 18 18 18 18 18 18 17 17 17 17 17 17 17 17 17 17 17 16 16 16 16 16 16 16 16
18 18 18 18 18 18 18 18 18 18 18 18 18 18 18 18 18 18 18 18 18 18 18 18 17 17 17 17 17 17 17 17 17 17 17 17 16 16 16 16 16 16 16
18 18 18 18 18 18 18 18 18 18 18 18 17 18 18 18 18 18 18 18 18 18 18 18 17 17 17 17 17 17 17 17 17 17 17 17 17 16 16 16 16 16 16
18 18 18 18 18 18 18 18 18 18 18 18 17 17 18 18 18 18 18 18 18 18 18 18 17 17 17 17 17 17 17 17 17 17 17 17 16 16 16 16 16 16 16
18 18 18 18 18 18 18 18 18 18 18 18 18 17 17 18 18 18 18 18 18 18 18 18 18 18 17 17 17 17 17 17 17 17 17 17 16 16 16 16 16 16 16
18 18 18 18 18 18 18 18 18 18 18 18 18 17 17 17 17 18 18 18 18 18 18 18 18 18 18 18 17 17 17 17 17 17 17 17 16 16 16 16 16 16 16
18 18 18 18 18 18 18 18 18 18 18 18 18 17 17 17 17 17 17 18 18 18 18 18 18 18 18 17 17 17 17 17 17 17 17 16 16 16 16 16 16 16 16
19 18 18 18 18 18 18 18 18 18 18 18 17 17 17 17 17 17 17 17 17 18 18 18 17 18 17 17 17 17 17 17 17 17 17 16 16 16 16 16 16 16 15
19 19 18 18 18 18 18 18 18 18 18 18 18 17 17 17 17 17 17 17 17 17 17 17 17 17 17 17 17 17 17 17 17 17 16 16 16 16 16 16 15 15 15
19 19 18 18 18 18 18 18 18 18 18 18 17 17 17 17 17 17 17 17 17 17 17 17 17 17 17 17 17 17 17 17 16 16 16 16 16 16 16 15 15 15 15
19 19 19 18 18 18 18 18 18 18 17 17 17 17 17 17 17 17 17 17 16 16 16 17 17 17 17 17 17 16 16 16 16 16 16 16 16 16 15 15 15 15 15
19 19 19 19 18 18 18 18 18 17 17 17 17 17 17 17 17 17 16 16 16 16 16 16 16 17 16 16 16 16 16 16 16 16 16 15 15 15 15 15 15 15 15
19 19 19 19 18 18 18 18 18 17 17 17 17 17 17 17 17 16 16 16 16 16 16 16 16 16 16 16 16 16 16 16 16 15 15 15 15 15 15 15 14 14 14
19 19 19 18 18 18 18 18 17 17 17 17 17 17 17 16 16 16 16 16 16 16 15 15 15 16 16 16 16 15 15 15 15 15 15 15 15 15 14 14 14 14 14
19 19 19 18 18 18 18 17 17 17 17 17 17 16 16 16 16 16 16 16 15 15 15 15 15 15 15 15 15 15 15 15 15 15 14 14 14 14 14 14 14 13 13
19 19 18 18 18 18 18 17 17 17 17 17 16 16 16 16 16 16 16 15 15 15 15 15 15 15 15 15 15 15 15 15 14 14 14 14 14 14 13 13 13 13 13
19 19 18 18 18 18 17 17 17 17 17 17 16 16 16 16 16 15 15 15 15 15 15 15 14 14 14 14 14 14 14 14 14 14 14 14 13 13 13 13 13 13 13
19 18 18 18 18 17 17 17 17 17 16 16 16 16 16 15 15 15 15 15 15 14 14 14 14 14 14 14 14 14 13 13 13 13 13 13 13 13 13 13 12 12 12
19 18 18 18 17 17 17 17 16 16 16 16 16 15 15 15 15 15 15 14 14 14 14 14 14 14 14 14 13 13 13 13 13 13 12 12 12 12 12 12 12 12 12
18 18 17 17 17 17 17 16 16 16 16 15 15 15 15 15 15 14 14 14 14 14 14 13 13 13 13 13 13 13 13 12 12 12 12 12 12 12 12 12 11 11 11
18 17 17 17 16 16 16 16 16 16 16 15 15 15 14 14 14 14 14 14 14 13 13 13 13 13 13 13 13 12 12 12 12 12 11 11 11 11 11 11 11 11 11
18 17 16 16 16 16 16 16 15 15 15 15 15 14 14 14 14 14 13 13 13 13 13 13 13 13 12 12 12 12 12 12 11 11 11 11 11 10 10 10 10 10 10
Wind_Speed
5 5 5 7 7 7 6 5 5 4 4 5 5 5 5 8 9 10 12 17 17 16 15 15 14 14 14 14 13 13 13 12 12 12 11 11 10 10 10 9 9 8 7
7 6 4 5 6 8 8 6 5 3 3 3 3 5 6 8 10 11 12 15 17 16 16 16 16 15 15 15 15 14 14 14 13 13 13 12 12 11 11 10 10 9 9
10 7 5 4 6 8 8 5 4 3 3 3 3 4 5 6 9 11 12 13 15 16 17 17 17 17 16 16 16 15 15 15 15 14 14 13 13 12 12 11 11 10 10
11 8 4 4 6 6 5 3 3 3 3 3 3 3 3 5 8 10 12 13 14 14 17 18 18 18 18 17 17 17 17 16 16 16 15 14 14 13 13 12 12 11 11
12 9 5 5 6 4 3 4 3 3 3 3 3 4 3 4 5 8 9 13 15 15 15 17 19 19 19 19 19 18 18 18 17 17 17 16 15 15 14 14 14 13 13
12 9 5 6 6 4 3 3 3 3 3 3 3 3 4 4 4 5 8 10 13 15 15 15 16 17 21 21 20 20 19 19 19 19 18 17 17 16 16 15 15 15 14
10 8 4 4 4 4 5 5 3 3 3 2 1 2 3 3 4 5 5 5 8 13 14 15 15 15 15 21 22 21 20 20 20 20 20 19 19 18 17 17 16 16 16
9 8 5 5 4 4 4 4 4 2 3 3 3 1 2 4 3 4 4 6 6 7 9 14 15 15 15 14 17 21 21 21 20 20 21 20 20 19 18 18 17 17 16
7 7 7 5 5 5 5 5 5 5 4 3 3 4 3 4 3 3 4 4 4 4 6 8 13 15 16 15 15 19 22 23 22 21 21 21 21 20 20 19 18 17 17
6 7 7 7 5 4 5 5 5 4 4 4 3 3 4 4 3 3 3 3 4 5 6 6 8 12 15 15 15 17 20 21 22 22 21 20 20 20 20 19 19 18 18
4 5 6 5 5 5 5 5 4 4 4 4 4 3 3 3 4 3 4 4 3 4 5 5 5 7 12 14 15 17 19 21 21 21 21 21 21 20 20 20 19 18 18
2 3 4 4 4 4 5 5 5 5 5 5 4 4 4 3 4 4 5 5 4 4 3 4 4 6 9 12 14 16 18 19 20 21 20 21 21 21 21 20 20 19 18
2 3 3 3 3 4 4 4 5 5 5 5 5 5 5 5 4 4 4 4 4 3 2 2 4 4 6 8 11 14 16 17 17 18 19 19 19 19 19 19 18 18 17
4 4 4 4 4 4 4 4 4 5 5 5 6 5 5 5 4 4 4 4 3 3 3 4 2 3 4 4 7 9 9 13 15 16 16 16 16 16 17 17 17 17 16
3 3 3 3 3 3 4 3 4 5 4 5 5 5 5 4 4 4 4 4 4 4 4 4 3 3 3 3 4 5 6 9 12 14 15 15 15 15 15 15 15 15 15
3 3 3 3 3 3 4 3 3 4 4 5 4 4 4 3 3 2 3 3 4 5 4 4 4 3 3 2 3 4 5 6 7 10 12 13 14 13 13 13 13 13 13
4 3 3 3 3 3 3 3 3 3 4 4 3 3 4 3 3 3 2 2 3 3 5 4 3 2 2 3 2 3 4 4 5 7 9 11 11 11 11 11 11 11 11
4 3 3 2 2 1 2 2 3 3 3 3 3 2 3 3 2 2 2 2 3 3 4 5 3 2 3 3 3 2 2 3 3 5 7 8 9 9 10 10 10 10 10
4 3 3 2 2 1 1 1 1 2 2 2 2 1 2 1 2 2 2 2 3 2 2 3 3 2 2 2 1 1 1 1 2 2 4 5 6 7 8 8 9 9 9
5 4 3 2 2 1 0 1 1 1 1 1 1 1 1 1 2 2 2 2 2 2 2 2 3 2 2 1 1 1 1 1 1 1 1 2 4 5 7 7 8 8 9
5 4 3 2 1 1 0 1 1 1 1 1 1 1 1 1 1 2 1 2 2 1 1 1 2 2 2 1 2 2 2 1 1 1 0 1 1 2 3 5 6 7 8
4 4 3 3 1 0 1 0 0 1 1 1 1 1 0 1 2 1 1 0 1 1 2 2 2 3 3 2 2 2 2 1 2 1 1 2 1 2 2 3 6 7 8
5 5 4 3 2 0 1 1 1 0 0 1 1 1 1 1 1 1 1 1 2 1 1 2 3 4 3 3 3 2 2 2 3 2 2 2 1 2 2 3 6 7 8
5 4 4 3 2 0 1 1 1 1 0 1 1 1 1 1 2 0 0 1 2 2 2 1 3 4 3 2 3 3 3 1 0 0 1 2 1 2 2 2 4 6 7
4 4 3 3 3 0 1 1 0 1 1 1 1 1 0 0 2 1 2 1 2 3 3 3 2 0 1 2 3 2 2 1 1 1 0 1 1 1 1 2 3 6 7
4 4 3 3 3 1 1 1 1 1 1 0 1 2 2 1 2 2 1 0 1 2 2 3 3 3 2 1 2 2 3 2 1 2 1 1 1 1 1 2 2 3 4
Wind_Direction
176 178 186 193 197 195 194 201 207 211 221 233 234 220 202 192 188 186 191 191 191 191 192 191 192 194 195 196 197 198 198 198 197 197 197 196 198 198 193 192 194 195 196
177 175 181 190 200 202 204 201 205 209 220 227 233 223 203 188 193 193 193 195 197 197 198 198 199 201 203 205 206 207 207 207 206 205 204 203 204 204 204 204 205 205 204
177 175 177 188 200 200 198 197 205 215 219 225 238 229 210 196 193 197 197 198 202 205 206 207 208 209 210 212 213 213 212 212 210 208 207 208 209 208 209 210 210 210 210
181 178 178 192 198 191 184 179 189 203 225 225 236 241 220 205 201 202 201 202 203 207 213 215 216 216 217 218 219 218 217 216 214 211 210 211 212 213 214 214 214 214 216
185 182 185 193 190 178 185 197 188 193 210 224 237 242 238 223 210 209 203 206 207 210 212 218 220 222 223 224 224 223 221 219 216 213 214 216 217 217 218 217 218 219 220
189 186 191 194 182 172 192 195 194 201 205 213 245 251 248 234 221 215 214 211 211 215 215 216 220 225 227 227 227 227 224 222 218 217 218 218 219 219 219 220 222 222 223
190 185 187 183 179 183 199 199 188 197 212 179 149 305 302 272 244 235 222 213 215 216 213 214 217 221 227 229 229 228 227 225 223 222 221 221 221 220 220 221 222 224 226
193 189 183 186 185 188 199 201 190 182 211 180 166 165 311 322 292 248 233 224 224 213 212 216 216 218 221 222 226 227 226 227 228 226 224 223 223 222 221 222 223 224 224
193 193 191 189 191 190 202 207 195 189 210 220 186 166 180 239 287 294 248 230 217 212 221 219 217 217 218 219 223 227 227 227 228 228 227 225 223 222 222 223 223 223 224
198 202 200 196 192 192 202 215 200 192 192 218 229 215 200 183 199 292 306 268 238 225 224 229 225 219 217 217 219 221 225 226 228 228 227 225 224 222 223 223 224 225 226
209 211 204 196 196 199 205 212 203 203 201 206 211 214 221 218 200 207 272 292 291 256 237 228 227 223 222 220 221 224 224 226 225 226 227 227 225 224 224 224 227 228 229
227 227 207 200 201 203 208 212 211 215 218 217 213 205 202 208 209 205 236 255 262 267 254 241 232 226 227 225 224 225 223 223 225 226 227 228 229 228 227 227 229 231 233
218 228 217 206 209 212 216 215 215 222 221 223 223 222 221 224 209 200 217 243 248 263 271 263 246 233 231 228 227 227 224 221 223 225 226 227 228 230 229 229 231 234 236
210 217 211 210 212 215 222 218 225 232 230 232 240 233 232 237 222 209 208 215 246 262 256 256 264 238 228 225 223 230 231 227 224 224 225 226 228 230 230 229 229 230 233
212 211 210 209 217 222 228 222 231 241 237 237 246 245 243 247 238 228 219 206 207 237 252 248 244 243 229 230 230 227 234 232 227 224 225 227 226 228 229 228 228 228 229
206 201 213 213 221 232 235 225 237 246 241 248 245 244 252 255 257 250 238 228 211 212 237 239 235 242 228 232 240 226 230 233 228 229 228 226 227 227 227 227 228 227 226
198 203 213 217 229 243 245 234 242 244 239 250 251 244 251 244 250 252 240 237 231 211 235 257 239 246 225 231 246 241 232 217 222 226 228 225 222 220 219 220 222 221 220
197 196 193 198 218 242 256 254 261 258 243 246 252 244 256 257 246 248 241 248 243 222 220 250 254 240 234 228 229 227 226 214 209 216 221 220 218 215 215 217 217 216 215
190 184 166 174 192 208 259 277 265 266 258 246 245 243 269 259 261 255 245 256 262 259 230 233 249 236 238 231 221 233 221 225 218 224 217 221 220 214 213 213 212 212 210
177 175 166 167 175 185 284 308 300 255 269 275 255 219 235 230 250 262 258 255 254 252 240 242 250 245 237 232 180 203 265 290 270 258 216 223 226 224 224 218 212 208 206
177 165 157 157 158 144 309 299 283 262 260 270 284 249 234 239 251 252 250 250 233 227 232 243 256 254 242 227 214 200 221 251 277 205 203 248 225 225 230 220 212 209 204
166 153 157 159 154 154 308 310 299 278 269 250 270 289 289 24 356 324 296 113 148 203 221 232 244 248 246 234 208 192 190 201 251 219 191 251 220 243 233 214 208 205 205
168 160 166 161 160 263 312 319 309 205 246 270 272 274 319 344 344 335 329 5 7 355 246 224 240 247 238 223 191 193 204 221 233 213 181 241 237 243 239 222 209 205 204
167 169 174 168 164 315 337 324 311 151 117 294 274 229 222 315 330 322 143 10 343 336 321 282 246 249 240 218 194 199 200 215 301 277 161 210 229 246 249 231 223 212 209
161 166 165 161 157 209 338 335 43 127 111 342 350 16 14 279 335 42 90 28 340 330 349 15 20 52 145 141 139 120 112 105 293 263 169 171 216 254 244 248 232 219 215
156 153 145 155 159 152 38 37 112 117 134 100 22 18 14 5 2 49 96 110 318 311 342 5 19 25 32 92 134 161 175 178 206 240 218 169 176 146 253 255 232 217 217
Height
1563 1564 1565 1566 1566 1567 1567 1568 1569 1570 1571 1571 1572 1573 1573 1574 1575 1575 1575 1576 1576 1576 1576 1577 1577 1578 1578 1579 1579 1580 1580 1581 1582 1582 1583 1583 1584 1584 1585 1585 1585 1586 1586
1563 1564 1565 1566 1566 1567 1568 1569 1569 1570 1571 1571 1572 1572 1573 1573 1574 1574 1575 1575 1575 1575 1576 1576 1576 1577 1578 1578 1578 1579 1579 1580 1580 1581 1582 1582 1583 1583 1584 1584 1584 1585 1585
1563 1564 1564 1565 1566 1567 1567 1568 1569 1569 1570 1571 1571 1572 1572 1572 1573 1573 1574 1574 1574 1574 1574 1575 1575 1576 1576 1577 1577 1578 1578 1578 1579 1580 1580 1581 1581 1582 1582 1582 1583 1583 1583
1562 1563 1564 1565 1565 1566 1567 1567 1568 1568 1569 1570 1570 1571 1571 1571 1571 1572 1572 1572 1572 1573 1573 1573 1574 1574 1574 1575 1575 1576 1576 1577 1577 1578 1578 1579 1579 1580 1580 1580 1581 1581 1581
1562 1562 1563 1564 1564 1565 1566 1566 1567 1567 1568 1568 1569 1569 1569 1569 1569 1570 1570 1570 1570 1571 1571 1571 1571 1572 1572 1572 1573 1574 1574 1574 1575 1575 1576 1576 1577 1577 1578 1578 1578 1579 1579
1560 1561 1562 1563 1563 1564 1564 1565 1565 1566 1566 1567 1567 1567 1567 1567 1567 1567 1567 1567 1568 1568 1569 1569 1569 1569 1570 1570 1570 1571 1571 1572 1572 1573 1573 1573 1574 1574 1575 1575 1576 1576 1576
1559 1560 1560 1561 1562 1562 1563 1563 1564 1564 1564 1565 1565 1565 1565 1565 1565 1564 1565 1564 1565 1565 1565 1566 1566 1566 1567 1567 1568 1568 1568 1569 1569 1569 1570 1570 1571 1571 1572 1572 1573 1573 1574
1557 1558 1558 1559 1559 1560 1561 1561 1561 1562 1562 1562 1563 1563 1563 1563 1561 1561 1561 1561 1561 1562 1562 1562 1562 1563 1563 1564 1564 1565 1565 1565 1566 1566 1567 1567 1568 1568 1568 1569 1569 1570 1570
1555 1556 1557 1557 1557 1558 1558 1559 1559 1559 1559 1560 1560 1561 1561 1559 1559 1558 1558 1558 1558 1558 1558 1559 1559 1559 1560 1560 1560 1561 1561 1561 1562 1562 1563 1563 1564 1564 1565 1565 1566 1566 1567
1553 1554 1554 1555 1555 1556 1556 1556 1556 1556 1557 1557 1557 1558 1558 1558 1557 1555 1555 1555 1555 1555 1555 1555 1555 1555 1555 1556 1556 1557 1557 1557 1558 1559 1559 1559 1560 1560 1561 1561 1562 1562 1563
1551 1551 1552 1552 1553 1553 1553 1553 1553 1554 1553 1553 1554 1554 1554 1554 1554 1554 1552 1551 1551 1551 1551 1551 1551 1551 1551 1551 1552 1552 1553 1553 1554 1554 1555 1555 1556 1556 1557 1557 1557 1558 1558
1549 1549 1549 1550 1550 1550 1550 1550 1550 1551 1551 1551 1551 1551 1551 1551 1550 1550 1549 1547 1547 1547 1547 1547 1547 1547 1547 1547 1547 1548 1548 1549 1549 1550 1550 1550 1551 1551 1552 1552 1553 1553 1553
1547 1547 1547 1547 1547 1547 1547 1547 1547 1547 1547 1547 1547 1547 1547 1547 1547 1546 1546 1544 1543 1543 1543 1543 1543 1543 1543 1542 1543 1543 1543 1544 1544 1545 1545 1545 1546 1546 1547 1547 1548 1548 1548
1545 1545 1545 1545 1545 1545 1544 1544 1544 1544 1544 1543 1543 1543 1543 1543 1543 1542 1542 1541 1540 1539 1539 1539 1539 1539 1539 1539 1539 1539 1539 1539 1539 1540 1540 1540 1541 1541 1541 1542 1542 1543 1543
1543 1543 1543 1542 1542 1542 1542 1541 1541 1540 1540 1540 1540 1539 1539 1539 1539 1538 1538 1537 1537 1535 1534 1534 1535 1535 1535 1535 1534 1534 1534 1534 1535 1535 1535 1535 1535 1536 1536 1536 1537 1537 1537
1541 1541 1541 1540 1540 1539 1539 1538 1537 1537 1536 1536 1536 1535 1535 1534 1534 1534 1533 1533 1533 1532 1530 1530 1530 1531 1530 1530 1530 1530 1530 1530 1530 1530 1530 1530 1530 1530 1530 1531 1531 1532 1532
1538 1538 1538 1538 1537 1537 1536 1535 1535 1534 1533 1533 1532 1531 1530 1530 1530 1529 1529 1528 1528 1528 1527 1526 1526 1527 1526 1526 1526 1526 1526 1525 1525 1525 1526 1526 1525 1525 1525 1526 1526 1526 1527
1536 1536 1536 1536 1535 1535 1534 1533 1532 1531 1530 1529 1528 1528 1527 1526 1525 1525 1525 1524 1524 1524 1524 1522 1522 1523 1522 1522 1522 1522 1521 1521 1521 1521 1521 1521 1521 1520 1520 1521 1521 1522 1522
1534 1534 1534 1534 1533 1533 1532 1531 1530 1529 1528 1527 1526 1525 1524 1523 1522 1521 1521 1520 1520 1520 1520 1519 1518 1519 1518 1518 1518 1517 1517 1517 1517 1517 1517 1517 1516 1516 1516 1516 1517 1517 1517
1532 1532 1532 1532 1531 1530 1530 1529 1528 1527 1526 1525 1524 1523 1521 1520 1519 1518 1517 1517 1516 1516 1516 1515 1515 1515 1514 1514 1514 1513 1513 1513 1513 1513 1513 1512 1512 1512 1512 1512 1512 1512 1513
1530 1530 1530 1530 1529 1528 1527 1527 1526 1525 1524 1523 1521 1520 1519 1518 1517 1516 1515 1514 1513 1513 1512 1511 1511 1511 1510 1510 1509 1509 1509 1509 1509 1509 1509 1509 1508 1508 1508 1508 1508 1509 1509
1528 1528 1528 1528 1527 1526 1526 1525 1524 1523 1522 1521 1519 1518 1517 1516 1514 1513 1512 1511 1510 1510 1509 1509 1508 1508 1507 1507 1506 1506 1505 1505 1505 1506 1505 1505 1505 1505 1505 1505 1505 1505 1505
1525 1525 1525 1525 1525 1525 1524 1523 1522 1521 1520 1519 1517 1516 1514 1513 1512 1511 1510 1509 1508 1507 1507 1507 1505 1504 1504 1503 1503 1502 1502 1502 1502 1502 1502 1501 1502 1502 1502 1501 1502 1502 1502
1522 1522 1523 1522 1523 1522 1521 1520 1520 1519 1517 1516 1515 1514 1512 1511 1510 1508 1507 1506 1505 1505 1504 1503 1502 1501 1501 1500 1500 1500 1499 1499 1499 1499 1499 1499 1498 1499 1499 1499 1499 1498 1498
1519 1519 1520 1520 1520 1519 1519 1518 1517 1516 1515 1514 1512 1511 1510 1509 1508 1506 1505 1504 1503 1502 1502 1501 1500 1499 1498 1497 1497 1497 1497 1496 1495 1496 1496 1496 1495 1495 1495 1495 1495 1495 1495
1516 1517 1517 1517 1517 1516 1516 1515 1515 1513 1512 1511 1510 1509 1508 1507 1506 1504 1503 1502 1501 1500 1500 1498 1498 1497 1496 1495 1495 1495 1494 1494 1493 1493 1493 1493 1493 1492 1492 1492 1492 1492 1492